Time,TemperatureF,DewpointF,PressureIn,WindDirection,WindDirectionDegrees,WindSpeedMPH,WindSpeedGustMPH,Humidity,HourlyPrecipIn,Conditions,Clouds,dailyrainin,SoftwareType,DateUTC
2013-07-23 00:00:00,75.0,71.2,29.72,NNW,338,3.0,5.0,88,-0.18,,,0.00,Weather View 32 v70,2013-07-23 04:00:00,
2013-07-23 00:05:00,75.0,71.2,29.72,North,0,3.0,5.0,88,-0.18,,,0.00,Weather View 32 v70,2013-07-23 04:05:00,
2013-07-23 00:10:00,75.0,70.8,29.71,NNW,338,1.0,5.0,87,-0.17,,,0.01,Weather View 32 v70,2013-07-23 04:10:00,
2013-07-23 00:15:00,75.0,70.8,29.71,WNW,292,2.0,5.0,87,-0.17,,,0.01,Weather View 32 v70,2013-07-23 04:15:00,
2013-07-23 00:20:00,75.0,70.8,29.71,West,270,2.0,5.0,87,-0.17,,,0.01,Weather View 32 v70,2013-07-23 04:20:00,
2013-07-23 00:25:00,75.0,70.8,29.71,West,270,3.0,5.0,87,-0.17,,,0.01,Weather View 32 v70,2013-07-23 04:25:00,
2013-07-23 00:27:00,75.0,70.8,29.71,West,270,3.0,5.0,87,-0.17,,,0.01,Weather View 32 v70,2013-07-23 04:27:00,
2013-07-23 00:35:00,75.0,70.8,29.71,North,0,2.0,5.0,87,-0.16,,,0.02,Weather View 32 v70,2013-07-23 04:35:00,
2013-07-23 00:40:00,75.0,70.8,29.70,North,0,2.0,5.0,87,-0.16,,,0.02,Weather View 32 v70,2013-07-23 04:40:00,
2013-07-23 00:50:00,75.0,70.8,29.70,NNW,338,3.0,5.0,87,-0.15,,,0.03,Weather View 32 v70,2013-07-23 04:50:00,
2013-07-23 00:55:00,75.0,70.8,29.70,NW,315,3.0,5.0,87,-0.14,,,0.04,Weather View 32 v70,2013-07-23 04:55:00,
2013-07-23 01:05:00,75.0,70.5,29.69,NNE,22,3.0,5.0,86,0.06,,,0.06,Weather View 32 v70,2013-07-23 05:05:00,
2013-07-23 01:10:00,75.0,70.5,29.68,North,0,2.0,5.0,86,0.05,,,0.06,Weather View 32 v70,2013-07-23 05:10:00,
2013-07-23 01:15:00,75.0,70.5,29.68,NNW,338,3.0,5.0,86,0.06,,,0.07,Weather View 32 v70,2013-07-23 05:15:00,
2013-07-23 01:20:00,75.0,70.5,29.68,North,0,1.0,5.0,86,0.07,,,0.08,Weather View 32 v70,2013-07-23 05:20:00,
2013-07-23 01:28:00,75.0,70.5,29.68,NW,315,2.0,5.0,86,0.09,,,0.10,Weather View 32 v70,2013-07-23 05:28:00,
2013-07-23 01:35:00,74.0,69.5,29.67,WNW,292,5.0,5.0,86,0.27,,,0.29,Weather View 32 v70,2013-07-23 05:35:00,
2013-07-23 01:40:00,75.0,70.5,29.67,NW,315,2.0,6.0,86,0.28,,,0.30,Weather View 32 v70,2013-07-23 05:40:00,
2013-07-23 01:45:00,75.0,70.5,29.67,WSW,248,1.0,6.0,86,0.28,,,0.31,Weather View 32 v70,2013-07-23 05:45:00,
2013-07-23 01:55:00,75.0,70.5,29.67,NNE,22,1.0,6.0,86,0.29,,,0.33,Weather View 32 v70,2013-07-23 05:55:00,
2013-07-23 02:05:00,75.0,70.2,29.67,NE,45,0.0,6.0,85,0.31,,,0.37,Weather View 32 v70,2013-07-23 06:05:00,
2013-07-23 02:10:00,75.0,70.2,29.66,NW,315,1.0,6.0,85,0.35,,,0.41,Weather View 32 v70,2013-07-23 06:10:00,
2013-07-23 02:20:00,75.0,70.2,29.65,NW,315,1.0,6.0,85,0.36,,,0.44,Weather View 32 v70,2013-07-23 06:20:00,
2013-07-23 02:30:00,76.0,71.1,29.65,NNW,338,0.0,6.0,85,0.35,,,0.45,Weather View 32 v70,2013-07-23 06:30:00,
2013-07-23 02:40:00,76.0,71.1,29.66,NNE,22,0.0,3.0,85,0.19,,,0.49,Weather View 32 v70,2013-07-23 06:40:00,
2013-07-23 02:50:00,76.0,71.1,29.65,NNE,22,1.0,3.0,85,0.25,,,0.57,Weather View 32 v70,2013-07-23 06:50:00,
2013-07-23 02:55:00,76.0,71.1,29.65,North,0,0.0,3.0,85,0.28,,,0.61,Weather View 32 v70,2013-07-23 06:55:00,
2013-07-23 03:00:00,76.0,71.1,29.65,SW,225,3.0,4.0,85,0.30,,,0.64,Weather View 32 v70,2013-07-23 07:00:00,
2013-07-23 03:10:00,76.0,71.1,29.65,ESE,112,6.0,10.0,85,0.36,,,0.77,Weather View 32 v70,2013-07-23 07:10:00,
2013-07-23 03:15:00,75.0,70.8,29.65,ESE,112,3.0,16.0,87,0.37,,,0.79,Weather View 32 v70,2013-07-23 07:15:00,
2013-07-23 03:20:00,74.0,69.5,29.64,East,90,1.0,16.0,86,0.38,,,0.82,Weather View 32 v70,2013-07-23 07:20:00,
2013-07-23 03:29:00,74.0,69.5,29.63,East,90,6.0,16.0,86,0.39,,,0.84,Weather View 32 v70,2013-07-23 07:29:00,
2013-07-23 03:35:00,74.0,69.9,29.62,ESE,112,5.0,16.0,87,0.38,,,0.85,Weather View 32 v70,2013-07-23 07:35:00,
2013-07-23 03:40:00,74.0,69.9,29.62,ENE,68,1.0,16.0,87,0.37,,,0.86,Weather View 32 v70,2013-07-23 07:40:00,
2013-07-23 03:50:00,74.0,69.9,29.62,SE,135,3.0,16.0,87,0.29,,,0.86,Weather View 32 v70,2013-07-23 07:50:00,
2013-07-23 04:00:00,74.0,69.9,29.61,East,90,1.0,16.0,87,0.22,,,0.86,Weather View 32 v70,2013-07-23 08:00:00,
2013-07-23 04:05:00,74.0,69.9,29.61,NNE,22,1.0,16.0,87,0.15,,,0.86,Weather View 32 v70,2013-07-23 08:05:00,
2013-07-23 04:10:00,74.0,69.9,29.62,ESE,112,2.0,16.0,87,0.09,,,0.86,Weather View 32 v70,2013-07-23 08:10:00,
2013-07-23 04:15:00,74.0,69.9,29.62,ESE,112,3.0,9.0,87,0.07,,,0.86,Weather View 32 v70,2013-07-23 08:15:00,
2013-07-23 04:20:00,74.0,69.9,29.62,ESE,112,5.0,9.0,87,0.04,,,0.86,Weather View 32 v70,2013-07-23 08:20:00,
2013-07-23 04:30:00,73.0,69.2,29.62,ESE,112,7.0,10.0,88,0.01,,,0.86,Weather View 32 v70,2013-07-23 08:30:00,
2013-07-23 04:40:00,73.0,69.2,29.61,ESE,112,3.0,10.0,88,0.00,,,0.86,Weather View 32 v70,2013-07-23 08:40:00,
2013-07-23 04:50:00,72.0,68.2,29.61,SSE,158,5.0,10.0,88,0.00,,,0.86,Weather View 32 v70,2013-07-23 08:50:00,
2013-07-23 05:00:00,72.0,68.2,29.61,ESE,112,6.0,10.0,88,0.00,,,0.86,Weather View 32 v70,2013-07-23 09:00:00,
2013-07-23 05:05:00,72.0,68.2,29.61,ESE,112,3.0,10.0,88,0.00,,,0.86,Weather View 32 v70,2013-07-23 09:05:00,
2013-07-23 05:10:00,72.0,68.6,29.61,East,90,3.0,10.0,89,0.00,,,0.86,Weather View 32 v70,2013-07-23 09:10:00,
2013-07-23 05:20:00,72.0,68.6,29.61,SE,135,9.0,10.0,89,0.00,,,0.86,Weather View 32 v70,2013-07-23 09:20:00,
2013-07-23 05:25:00,72.0,68.6,29.61,East,90,5.0,10.0,89,0.00,,,0.86,Weather View 32 v70,2013-07-23 09:25:00,
2013-07-23 05:30:00,72.0,68.6,29.61,East,90,5.0,10.0,89,0.00,,,0.86,Weather View 32 v70,2013-07-23 09:30:00,
2013-07-23 05:35:00,72.0,68.6,29.61,SSE,158,5.0,9.0,89,0.00,,,0.86,Weather View 32 v70,2013-07-23 09:35:00,
2013-07-23 05:40:00,72.0,68.6,29.61,ESE,112,5.0,10.0,89,0.00,,,0.86,Weather View 32 v70,2013-07-23 09:40:00,
2013-07-23 05:45:00,72.0,68.6,29.61,SE,135,4.0,10.0,89,0.00,,,0.86,Weather View 32 v70,2013-07-23 09:45:00,
2013-07-23 05:55:00,72.0,68.6,29.61,SSE,158,3.0,10.0,89,0.00,,,0.86,Weather View 32 v70,2013-07-23 09:55:00,
2013-07-23 06:00:00,72.0,68.6,29.61,ESE,112,5.0,10.0,89,0.00,,,0.86,Weather View 32 v70,2013-07-23 10:00:00,
2013-07-23 06:10:00,72.0,68.2,29.61,ESE,112,4.0,10.0,88,0.00,,,0.86,Weather View 32 v70,2013-07-23 10:10:00,
2013-07-23 06:15:00,72.0,68.2,29.61,ESE,112,2.0,10.0,88,0.00,,,0.86,Weather View 32 v70,2013-07-23 10:15:00,
2013-07-23 06:20:00,72.0,68.2,29.61,ESE,112,5.0,10.0,88,0.00,,,0.86,Weather View 32 v70,2013-07-23 10:20:00,
2013-07-23 06:25:00,73.0,69.2,29.61,SSE,158,4.0,10.0,88,0.00,,,0.86,Weather View 32 v70,2013-07-23 10:25:00,
2013-07-23 06:30:00,73.0,69.2,29.61,ESE,112,2.0,10.0,88,0.00,,,0.86,Weather View 32 v70,2013-07-23 10:30:00,
2013-07-23 06:35:00,73.0,69.2,29.61,SSE,158,3.0,10.0,88,0.00,,,0.86,Weather View 32 v70,2013-07-23 10:35:00,
2013-07-23 06:40:00,73.0,69.2,29.61,SSE,158,2.0,8.0,88,0.00,,,0.86,Weather View 32 v70,2013-07-23 10:40:00,
2013-07-23 06:50:00,73.0,69.2,29.62,South,180,3.0,7.0,88,0.00,,,0.86,Weather View 32 v70,2013-07-23 10:50:00,
2013-07-23 07:00:00,73.0,69.2,29.62,ESE,112,3.0,7.0,88,0.00,,,0.86,Weather View 32 v70,2013-07-23 11:00:00,
2013-07-23 07:10:00,73.0,69.2,29.62,ESE,112,1.0,7.0,88,0.00,,,0.86,Weather View 32 v70,2013-07-23 11:10:00,
2013-07-23 07:15:00,73.0,69.2,29.62,SE,135,5.0,8.0,88,0.00,,,0.86,Weather View 32 v70,2013-07-23 11:15:00,
2013-07-23 07:25:00,73.0,69.2,29.62,ESE,112,6.0,8.0,88,0.00,,,0.86,Weather View 32 v70,2013-07-23 11:25:00,
2013-07-23 07:30:00,73.0,69.2,29.62,SSE,158,4.0,8.0,88,0.00,,,0.86,Weather View 32 v70,2013-07-23 11:30:00,
2013-07-23 07:40:00,74.0,70.2,29.61,East,90,3.0,8.0,88,0.00,,,0.86,Weather View 32 v70,2013-07-23 11:40:00,
2013-07-23 07:50:00,74.0,70.2,29.61,ESE,112,3.0,8.0,88,0.00,,,0.86,Weather View 32 v70,2013-07-23 11:50:00,
2013-07-23 07:55:00,74.0,70.2,29.61,SSW,202,3.0,8.0,88,0.00,,,0.86,Weather View 32 v70,2013-07-23 11:55:00,
2013-07-23 08:00:00,74.0,70.2,29.61,ENE,68,2.0,8.0,88,0.00,,,0.86,Weather View 32 v70,2013-07-23 12:00:00,
2013-07-23 08:05:00,74.0,70.2,29.61,ESE,112,3.0,8.0,88,0.00,,,0.86,Weather View 32 v70,2013-07-23 12:05:00,
2013-07-23 08:10:00,74.0,70.2,29.61,SE,135,5.0,8.0,88,0.00,,,0.86,Weather View 32 v70,2013-07-23 12:10:00,
2013-07-23 08:15:00,75.0,71.2,29.61,ESE,112,3.0,8.0,88,0.00,,,0.86,Weather View 32 v70,2013-07-23 12:15:00,
2013-07-23 08:25:00,75.0,71.2,29.61,SE,135,3.0,8.0,88,0.00,,,0.86,Weather View 32 v70,2013-07-23 12:25:00,
2013-07-23 08:32:00,75.0,71.5,29.61,SSW,202,3.0,9.0,89,0.00,,,0.86,Weather View 32 v70,2013-07-23 12:32:00,
2013-07-23 08:40:00,76.0,72.2,29.60,South,180,4.0,9.0,88,0.00,,,0.86,Weather View 32 v70,2013-07-23 12:40:00,
2013-07-23 08:50:00,75.0,71.9,29.60,SSW,202,6.0,11.0,90,0.00,,,0.86,Weather View 32 v70,2013-07-23 12:50:00,
2013-07-23 08:55:00,76.0,72.8,29.60,SSW,202,3.0,11.0,90,0.00,,,0.86,Weather View 32 v70,2013-07-23 12:55:00,
2013-07-23 09:00:00,76.0,73.5,29.60,ESE,112,5.0,11.0,92,0.00,,,0.86,Weather View 32 v70,2013-07-23 13:00:00,
2013-07-23 09:10:00,76.0,74.1,29.60,SSW,202,7.0,11.0,94,0.00,,,0.86,Weather View 32 v70,2013-07-23 13:10:00,
2013-07-23 09:20:00,77.0,75.8,29.59,South,180,5.0,11.0,96,0.00,,,0.86,Weather View 32 v70,2013-07-23 13:20:00,
2013-07-23 09:30:00,77.0,76.7,29.59,South,180,7.0,11.0,99,0.00,,,0.86,Weather View 32 v70,2013-07-23 13:30:00,
2013-07-23 09:40:00,77.0,77.0,29.59,South,180,7.0,11.0,100,0.00,,,0.86,Weather View 32 v70,2013-07-23 13:40:00,
2013-07-23 09:50:00,78.0,78.0,29.59,South,180,8.0,11.0,100,0.00,,,0.86,Weather View 32 v70,2013-07-23 13:50:00,
2013-07-23 09:55:00,78.0,78.0,29.59,WNW,292,3.0,11.0,100,0.00,,,0.86,Weather View 32 v70,2013-07-23 13:55:00,
2013-07-23 10:00:00,78.0,77.7,29.60,SE,135,6.0,11.0,99,0.00,,,0.86,Weather View 32 v70,2013-07-23 14:00:00,
2013-07-23 10:10:00,78.0,77.4,29.60,SW,225,5.0,11.0,98,0.00,,,0.86,Weather View 32 v70,2013-07-23 14:10:00,
2013-07-23 10:20:00,79.0,77.8,29.59,SE,135,5.0,11.0,96,0.00,,,0.86,Weather View 32 v70,2013-07-23 14:20:00,
2013-07-23 10:30:00,78.0,76.4,29.59,SSW,202,8.0,12.0,95,0.00,,,0.86,Weather View 32 v70,2013-07-23 14:30:00,
2013-07-23 10:35:00,79.0,77.1,29.59,ESE,112,4.0,12.0,94,0.00,,,0.86,Weather View 32 v70,2013-07-23 14:35:00,
2013-07-23 10:40:00,79.0,77.1,29.59,SSW,202,5.0,12.0,94,0.00,,,0.86,Weather View 32 v70,2013-07-23 14:40:00,
2013-07-23 10:45:00,80.0,77.5,29.59,SSE,158,5.0,12.0,92,0.00,,,0.86,Weather View 32 v70,2013-07-23 14:45:00,
2013-07-23 10:50:00,80.0,77.1,29.59,ESE,112,6.0,12.0,91,0.00,,,0.86,Weather View 32 v70,2013-07-23 14:50:00,
2013-07-23 10:55:00,80.0,76.4,29.59,SSE,158,5.0,12.0,89,0.00,,,0.86,Weather View 32 v70,2013-07-23 14:55:00,
2013-07-23 11:00:00,81.0,77.1,29.59,South,180,5.0,12.0,88,0.00,,,0.86,Weather View 32 v70,2013-07-23 15:00:00,
2013-07-23 11:10:00,80.0,75.8,29.59,NNW,338,3.0,12.0,87,0.00,,,0.86,Weather View 32 v70,2013-07-23 15:10:00,
2013-07-23 11:20:00,81.0,76.7,29.59,SSW,202,4.0,12.0,87,0.00,,,0.86,Weather View 32 v70,2013-07-23 15:20:00,
2013-07-23 11:30:00,81.0,76.4,29.58,South,180,8.0,13.0,86,0.00,,,0.86,Weather View 32 v70,2013-07-23 15:30:00,
2013-07-23 11:35:00,81.0,75.7,29.58,SW,225,6.0,13.0,84,0.00,,,0.86,Weather View 32 v70,2013-07-23 15:35:00,
2013-07-23 11:40:00,81.0,75.0,29.58,SE,135,5.0,13.0,82,0.00,,,0.86,Weather View 32 v70,2013-07-23 15:40:00,
2013-07-23 11:50:00,82.0,75.9,29.58,South,180,5.0,13.0,82,0.00,,,0.86,Weather View 32 v70,2013-07-23 15:50:00,
2013-07-23 11:55:00,81.0,74.6,29.57,SSE,158,6.0,13.0,81,0.00,,,0.86,Weather View 32 v70,2013-07-23 15:55:00,
2013-07-23 12:05:00,82.0,75.9,29.58,SSE,158,5.0,13.0,82,0.00,,,0.86,Weather View 32 v70,2013-07-23 16:05:00,
2013-07-23 12:10:00,82.0,75.6,29.57,SSE,158,6.0,13.0,81,0.00,,,0.86,Weather View 32 v70,2013-07-23 16:10:00,
2013-07-23 12:15:00,82.0,75.2,29.57,ESE,112,8.0,13.0,80,0.00,,,0.86,Weather View 32 v70,2013-07-23 16:15:00,
2013-07-23 12:20:00,83.0,76.2,29.57,East,90,4.0,13.0,80,0.00,,,0.86,Weather View 32 v70,2013-07-23 16:20:00,
2013-07-23 12:30:00,83.0,75.0,29.57,ESE,112,4.0,11.0,77,0.00,,,0.86,Weather View 32 v70,2013-07-23 16:30:00,
2013-07-23 12:35:00,84.0,76.4,29.57,ESE,112,6.0,11.0,78,0.00,,,0.86,Weather View 32 v70,2013-07-23 16:35:00,
2013-07-23 12:40:00,83.0,74.2,29.57,South,180,6.0,10.0,75,0.00,,,0.86,Weather View 32 v70,2013-07-23 16:40:00,
2013-07-23 12:45:00,83.0,74.6,29.57,South,180,5.0,10.0,76,0.00,,,0.86,Weather View 32 v70,2013-07-23 16:45:00,
2013-07-23 12:55:00,84.0,75.2,29.57,South,180,4.0,11.0,75,0.00,,,0.86,Weather View 32 v70,2013-07-23 16:55:00,
2013-07-23 13:00:00,84.0,74.8,29.57,SE,135,6.0,11.0,74,0.00,,,0.86,Weather View 32 v70,2013-07-23 17:00:00,
2013-07-23 13:05:00,84.0,74.8,29.57,SSW,202,5.0,11.0,74,0.00,,,0.86,Weather View 32 v70,2013-07-23 17:05:00,
2013-07-23 13:10:00,84.0,74.4,29.57,SE,135,6.0,11.0,73,0.00,,,0.86,Weather View 32 v70,2013-07-23 17:10:00,
2013-07-23 13:15:00,84.0,74.8,29.57,ESE,112,5.0,11.0,74,0.00,,,0.86,Weather View 32 v70,2013-07-23 17:15:00,
2013-07-23 13:25:00,84.0,74.8,29.56,ESE,112,5.0,11.0,74,0.00,,,0.86,Weather View 32 v70,2013-07-23 17:25:00,
2013-07-23 13:30:00,84.0,75.2,29.56,SE,135,4.0,11.0,75,0.00,,,0.86,Weather View 32 v70,2013-07-23 17:30:00,
2013-07-23 13:40:00,84.0,74.8,29.56,SE,135,6.0,13.0,74,0.00,,,0.86,Weather View 32 v70,2013-07-23 17:40:00,
2013-07-23 13:50:00,84.0,75.6,29.55,ENE,68,5.0,13.0,76,0.00,,,0.86,Weather View 32 v70,2013-07-23 17:50:00,
2013-07-23 14:00:00,84.0,75.2,29.55,SSW,202,4.0,13.0,75,0.00,,,0.86,Weather View 32 v70,2013-07-23 18:00:00,
2013-07-23 14:05:00,84.0,75.6,29.55,SSE,158,4.0,13.0,76,0.00,,,0.86,Weather View 32 v70,2013-07-23 18:05:00,
2013-07-23 14:15:00,85.0,75.7,29.55,SSE,158,8.0,13.0,74,0.00,,,0.86,Weather View 32 v70,2013-07-23 18:15:00,
2013-07-23 14:25:00,85.0,75.7,29.55,ESE,112,7.0,13.0,74,0.00,,,0.86,Weather View 32 v70,2013-07-23 18:25:00,
2013-07-23 14:30:00,86.0,76.3,29.55,ESE,112,5.0,15.0,73,0.00,,,0.86,Weather View 32 v70,2013-07-23 18:30:00,
2013-07-23 14:35:00,86.0,76.7,29.54,East,90,4.0,15.0,74,0.00,,,0.86,Weather View 32 v70,2013-07-23 18:35:00,
2013-07-23 14:45:00,86.0,75.0,29.54,SE,135,5.0,15.0,70,0.00,,,0.86,Weather View 32 v70,2013-07-23 18:45:00,
2013-07-23 14:50:00,86.0,74.2,29.54,East,90,4.0,15.0,68,0.00,,,0.86,Weather View 32 v70,2013-07-23 18:50:00,
2013-07-23 14:55:00,86.0,75.0,29.54,South,180,5.0,15.0,70,0.00,,,0.86,Weather View 32 v70,2013-07-23 18:55:00,
2013-07-23 15:05:00,86.0,74.2,29.54,SE,135,5.0,15.0,68,0.00,,,0.86,Weather View 32 v70,2013-07-23 19:05:00,
2013-07-23 15:15:00,86.0,73.3,29.54,SE,135,8.0,15.0,66,0.00,,,0.86,Weather View 32 v70,2013-07-23 19:15:00,
2013-07-23 15:20:00,87.0,74.2,29.54,SSW,202,6.0,15.0,66,0.00,,,0.86,Weather View 32 v70,2013-07-23 19:20:00,
2013-07-23 15:36:00,86.0,74.6,29.53,ESE,112,6.0,17.0,69,0.00,,,0.86,Weather View 32 v70,2013-07-23 19:36:00,
2013-07-23 15:45:00,86.0,74.2,29.53,ESE,112,11.0,17.0,68,0.00,,,0.86,Weather View 32 v70,2013-07-23 19:45:00,
2013-07-23 15:55:00,86.0,73.7,29.53,SE,135,15.0,17.0,67,0.00,,,0.86,Weather View 32 v70,2013-07-23 19:55:00,
2013-07-23 16:00:00,85.0,73.6,29.53,ESE,112,10.0,17.0,69,0.00,,,0.86,Weather View 32 v70,2013-07-23 20:00:00,
2013-07-23 16:15:00,82.0,73.7,29.54,SSW,202,8.0,17.0,76,0.01,,,0.87,Weather View 32 v70,2013-07-23 20:15:00,
2013-07-23 16:20:00,80.0,74.0,29.54,WSW,248,5.0,17.0,82,0.01,,,0.87,Weather View 32 v70,2013-07-23 20:20:00,
2013-07-23 16:30:00,82.0,77.4,29.53,East,90,1.0,17.0,86,0.01,,,0.87,Weather View 32 v70,2013-07-23 20:30:00,
2013-07-23 16:35:00,82.0,77.0,29.53,SSE,158,3.0,17.0,85,0.01,,,0.87,Weather View 32 v70,2013-07-23 20:35:00,
2013-07-23 16:40:00,83.0,77.3,29.53,SE,135,3.0,17.0,83,0.01,,,0.87,Weather View 32 v70,2013-07-23 20:40:00,
2013-07-23 16:55:00,83.0,76.2,29.53,ENE,68,4.0,17.0,80,0.01,,,0.87,Weather View 32 v70,2013-07-23 20:55:00,
2013-07-23 17:05:00,83.0,76.2,29.52,South,180,3.0,17.0,80,0.01,,,0.87,Weather View 32 v70,2013-07-23 21:05:00,
2013-07-23 17:10:00,83.0,76.2,29.52,ESE,112,6.0,17.0,80,0.01,,,0.87,Weather View 32 v70,2013-07-23 21:10:00,
2013-07-23 17:20:00,83.0,75.8,29.52,East,90,8.0,14.0,79,0.00,,,0.87,Weather View 32 v70,2013-07-23 21:20:00,
2013-07-23 17:30:00,83.0,76.5,29.52,SE,135,6.0,14.0,81,0.00,,,0.87,Weather View 32 v70,2013-07-23 21:30:00,
2013-07-23 17:37:00,83.0,76.2,29.52,ESE,112,5.0,14.0,80,0.00,,,0.87,Weather View 32 v70,2013-07-23 21:37:00,
2013-07-23 17:45:00,83.0,76.9,29.52,East,90,3.0,14.0,82,0.00,,,0.87,Weather View 32 v70,2013-07-23 21:45:00,
2013-07-23 17:55:00,83.0,76.9,29.52,East,90,2.0,11.0,82,0.00,,,0.87,Weather View 32 v70,2013-07-23 21:55:00,
2013-07-23 18:05:00,83.0,77.3,29.52,ESE,112,6.0,11.0,83,0.00,,,0.87,Weather View 32 v70,2013-07-23 22:05:00,
2013-07-23 18:10:00,83.0,77.6,29.52,SSE,158,3.0,11.0,84,0.00,,,0.87,Weather View 32 v70,2013-07-23 22:10:00,
2013-07-23 18:15:00,83.0,77.3,29.52,ESE,112,5.0,11.0,83,0.00,,,0.87,Weather View 32 v70,2013-07-23 22:15:00,
2013-07-23 18:20:00,83.0,77.3,29.52,East,90,8.0,11.0,83,0.00,,,0.87,Weather View 32 v70,2013-07-23 22:20:00,
2013-07-23 18:30:00,84.0,78.3,29.52,SE,135,7.0,11.0,83,0.00,,,0.87,Weather View 32 v70,2013-07-23 22:30:00,
2013-07-23 18:38:00,84.0,77.9,29.51,SSE,158,7.0,11.0,82,0.00,,,0.87,Weather View 32 v70,2013-07-23 22:38:00,
2013-07-23 18:45:00,86.0,73.7,29.52,SW,225,11.0,13.0,67,0.00,,,0.87,Weather View 32 v70,2013-07-23 22:45:00,
2013-07-23 18:50:00,86.0,73.3,29.52,SSW,202,6.0,16.0,66,0.00,,,0.87,Weather View 32 v70,2013-07-23 22:50:00,
2013-07-23 18:55:00,86.0,72.8,29.52,ESE,112,8.0,16.0,65,0.00,,,0.87,Weather View 32 v70,2013-07-23 22:55:00,
2013-07-23 19:10:00,85.0,72.3,29.52,SSW,202,8.0,16.0,66,0.00,,,0.87,Weather View 32 v70,2013-07-23 23:10:00,
2013-07-23 19:15:00,85.0,72.3,29.53,SW,225,5.0,16.0,66,0.00,,,0.87,Weather View 32 v70,2013-07-23 23:15:00,
2013-07-23 19:20:00,85.0,72.3,29.52,WNW,292,6.0,16.0,66,0.00,,,0.87,Weather View 32 v70,2013-07-23 23:20:00,
2013-07-23 19:30:00,84.0,71.4,29.53,SW,225,7.0,16.0,66,0.00,,,0.87,Weather View 32 v70,2013-07-23 23:30:00,
2013-07-23 19:38:00,84.0,71.4,29.53,SW,225,6.0,16.0,66,0.00,,,0.87,Weather View 32 v70,2013-07-23 23:38:00,
2013-07-23 19:50:00,83.0,70.9,29.54,SW,225,3.0,16.0,67,0.00,,,0.87,Weather View 32 v70,2013-07-23 23:50:00,
2013-07-23 20:05:00,83.0,71.7,29.54,South,180,4.0,14.0,69,0.00,,,0.87,Weather View 32 v70,2013-07-24 00:05:00,
2013-07-23 20:10:00,83.0,72.2,29.54,SW,225,3.0,14.0,70,0.00,,,0.87,Weather View 32 v70,2013-07-24 00:10:00,
2013-07-23 20:20:00,82.0,71.6,29.54,WSW,248,2.0,13.0,71,0.00,,,0.87,Weather View 32 v70,2013-07-24 00:20:00,
2013-07-23 20:30:00,82.0,72.0,29.55,SW,225,2.0,12.0,72,0.00,,,0.87,Weather View 32 v70,2013-07-24 00:30:00,
2013-07-23 20:39:00,82.0,72.4,29.55,SSW,202,3.0,12.0,73,0.00,,,0.87,Weather View 32 v70,2013-07-24 00:39:00,
2013-07-23 20:45:00,81.0,71.5,29.55,SSE,158,2.0,10.0,73,0.00,,,0.87,Weather View 32 v70,2013-07-24 00:45:00,
2013-07-23 20:55:00,81.0,72.3,29.56,SSE,158,2.0,10.0,75,0.00,,,0.87,Weather View 32 v70,2013-07-24 00:55:00,
2013-07-23 21:00:00,81.0,72.7,29.56,East,90,2.0,8.0,76,0.00,,,0.87,Weather View 32 v70,2013-07-24 01:00:00,
2013-07-23 21:10:00,80.0,72.1,29.56,SSE,158,2.0,8.0,77,0.00,,,0.87,Weather View 32 v70,2013-07-24 01:10:00,
2013-07-23 21:35:00,79.0,72.6,29.57,ESE,112,3.0,6.0,81,0.00,,,0.87,Weather View 32 v70,2013-07-24 01:35:00,
2013-07-23 21:40:00,79.0,73.0,29.57,ESE,112,1.0,6.0,82,0.00,,,0.87,Weather View 32 v70,2013-07-24 01:40:00,
2013-07-23 21:45:00,79.0,73.4,29.57,ESE,112,2.0,5.0,83,0.00,,,0.87,Weather View 32 v70,2013-07-24 01:45:00,
2013-07-23 21:55:00,78.0,73.1,29.57,NNE,22,1.0,5.0,85,0.00,,,0.87,Weather View 32 v70,2013-07-24 01:55:00,
2013-07-23 22:00:00,77.0,72.5,29.58,ESE,112,2.0,5.0,86,0.00,,,0.87,Weather View 32 v70,2013-07-24 02:00:00,
2013-07-23 22:05:00,77.0,72.8,29.57,ENE,68,1.0,5.0,87,0.00,,,0.87,Weather View 32 v70,2013-07-24 02:05:00,
2013-07-23 22:15:00,77.0,73.5,29.57,East,90,2.0,5.0,89,0.00,,,0.87,Weather View 32 v70,2013-07-24 02:15:00,
2013-07-23 22:20:00,77.0,73.8,29.57,ENE,68,1.0,5.0,90,0.00,,,0.87,Weather View 32 v70,2013-07-24 02:20:00,
2013-07-23 22:30:00,76.0,72.8,29.57,NE,45,1.0,4.0,90,0.00,,,0.87,Weather View 32 v70,2013-07-24 02:30:00,
2013-07-23 22:45:00,76.0,73.5,29.57,East,90,1.0,3.0,92,0.00,,,0.87,Weather View 32 v70,2013-07-24 02:45:00,
2013-07-23 22:50:00,76.0,73.8,29.57,ESE,112,1.0,3.0,93,0.00,,,0.87,Weather View 32 v70,2013-07-24 02:50:00,
2013-07-23 23:00:00,76.0,74.1,29.57,SSE,158,2.0,3.0,94,0.00,,,0.87,Weather View 32 v70,2013-07-24 03:00:00,
2013-07-23 23:05:00,76.0,74.1,29.57,SE,135,3.0,3.0,94,0.00,,,0.87,Weather View 32 v70,2013-07-24 03:05:00,
2013-07-23 23:10:00,76.0,74.5,29.58,SE,135,2.0,4.0,95,0.00,,,0.87,Weather View 32 v70,2013-07-24 03:10:00,
2013-07-23 23:20:00,76.0,74.8,29.58,ESE,112,1.0,5.0,96,0.00,,,0.87,Weather View 32 v70,2013-07-24 03:20:00,
2013-07-23 23:30:00,75.0,73.8,29.58,ESE,112,1.0,5.0,96,0.00,,,0.87,Weather View 32 v70,2013-07-24 03:30:00,
2013-07-23 23:35:00,75.0,74.1,29.58,ESE,112,2.0,5.0,97,0.00,,,0.87,Weather View 32 v70,2013-07-24 03:35:00,
2013-07-23 23:40:00,75.0,74.1,29.57,ESE,112,1.0,5.0,97,0.00,,,0.87,Weather View 32 v70,2013-07-24 03:40:00,
2013-07-23 23:50:00,75.0,74.4,29.58,ESE,112,1.0,5.0,98,0.00,,,0.87,Weather View 32 v70,2013-07-24 03:50:00,
2013-07-23 23:55:00,75.0,74.4,29.58,SE,135,2.0,5.0,98,0.00,,,0.87,Weather View 32 v70,2013-07-24 03:55:00,